Погода в Карманове

Россия / Смоленская область     55°49′52″N   34°51′20″E
темп.,
°C
ветер,
м/с
пор.,
м/с
влажн.,
%
обл.,
%
осадки,
мм/ч
давл.,
гПа
погр.,
м
13 апреля, вт
вт1300:00+9вюв3894100 0.0 1024202
03:00+8вюв389484 0.0 1023183
06:00+7юв3893100 0.0 1023169
09:00+11ююв4974100 0.0 1023333
12:00+17ю585696 0.0 1022630
15:00+19ююв694699 0.0 10211821
18:00+17ююв5105398 0.0 1020568
21:00+13ююв41067100 0.0 1020247
14 апреля, ср
ср1400:00+10юв387742 0.0 1020149
03:00+10юв31071100 0.0 1019228
06:00+8юв3108266 0.0 1018201
09:00+11ююв41077100 0.0 1018388
12:00+16ю585873 0.0 10171160
15:00+17ю5752100 0.5 10161623
18:00+15ююв2566100 0.3 1016235
21:00+12юв2277100 0.4 101711
15 апреля, чт
чт1500:00+10юв3874100 0.0 1017157
03:00+9вюв227699 0.0 101727
06:00+9всв3576100 0.0 101785
09:00+11в1272100 0.0 1017114
12:00+13с1161100 0.0 1017389
15:00+15в1359100 0.2 1016454
18:00+11сз2378100 0.2 101758
21:00+11с2480100 0.3 101769
16 апреля, пт
пт1600:00+9ссв51092100 1.8 1018309
03:00+8св51291100 2.0 1018398
06:00+7св61390100 0.1 1019442
09:00+8св71383100 0.1 1020528
12:00+12всв71069100 0.0 1020829
15:00+12св71168100 0.0 1021892
18:00+11св71273100 0.0 1022782
21:00+9св61376100 0.0 1024717
17 апреля, сб
сб1700:00+7св6147758 0.0 1026667
03:00+5св613685 0.0 1027478
06:00+3св6147114 0.0 1028455
09:00+7всв712571 0.0 1029793
12:00+10всв710420 0.0 10301360
15:00+11всв79391 0.0 10311561
18:00+10всв69470 0.0 10311404
21:00+6всв512500 0.0 1034465